Overview Statistics Trail Chart Weather Telemetry Raw packets
 

This is the latest recevied weather packets stored in our database for station/object PA3FNT-13. If no packets are shown the sender has not sent any weather packets the latest 10 day(s).

<< 2 3 4 5 6 7 8 >>
Time Temp. Humidity Pressure Rain* Wind** Luminosity Snow
1788421751 27.22° C 46% 1014.6 hPa - - - -
1788420834 26.11° C 48% 1014.6 hPa - - - -
1788419934 26.11° C 48% 1014.7 hPa - - - -
1788419034 26.11° C 48% 1014.6 hPa - - - -
1788418133 27.22° C 47% 1014.5 hPa - - - -
1788417232 27.22° C 47% 1014.4 hPa - - - -
1788416332 27.22° C 47% 1014.4 hPa - - - -
1788415432 27.78° C 46% 1014.4 hPa - - - -
1788414532 26.67° C 48% 1014.8 hPa - - - -
1788413632 26.67° C 47% 1014.7 hPa - - - -
1788412732 26.67° C 45% 1014.8 hPa - - - -
1788411831 27.78° C 44% 1014.8 hPa - - - -
1788410931 27.22° C 44% 1014.4 hPa - - - -
1788410031 27.22° C 44% 1014.4 hPa - - - -
1788409131 26.67° C 44% 1014.8 hPa - - - -
1788408231 26.67° C 44% 1014.9 hPa - - - -
1788407330 27.22° C 42% 1015.1 hPa - - - -
1788406430 27.22° C 42% 1014.9 hPa - - - -
1788405530 27.22° C 42% 1015.2 hPa - - - -
1788404630 26.67° C 42% 1015.2 hPa - - - -
1788403730 26.67° C 42% 1015.5 hPa - - - -
1788402830 26.67° C 42% 1015.6 hPa - - - -
1788401929 27.22° C 41% 1015.6 hPa - - - -
1788401029 27.22° C 40% 1015.7 hPa - - - -
1788400129 28.89° C 39% 1015.8 hPa - - - -

* Rain since midnight (hover to see other rain measurements)
** Current wind speed in m/s (hover to see current wind gust speed)